When you browse on this site, cookies collect data to enhance your experience and personalize the content and advertising you see.
Visit our Privacy Policy to learn more. By continuing to use the site, you agree to this use of cookies and data.
  • In Austria
  • List of Countries
  • For 7 days
  • Water Temperature
  • Satellite Maps
  • Weather Map
  • News
  • Weather Widgets
  • user-avatar
    Login

    Hourly Weather Troy

    Today, 23 April, Tuesday

    Time Temperature Precipitation Wind Pressure Humidity
    00:00 +13°C° 0 mm 2 mps 761 mmHg 86%
    01:00 +13°C° 0 mm 2 mps 761 mmHg 88%
    02:00 +12°C° 0 mm 2 mps 761 mmHg 90%
    03:00 +12°C° 0 mm 1 mps 761 mmHg 92%
    04:00 +12°C° 0 mm 1 mps 761 mmHg 93%
    05:00 +13°C° 0 mm 1 mps 760 mmHg 90%
    06:00 +13°C° 0 mm 1 mps 760 mmHg 88%
    07:00 +14°C° 0 mm 1 mps 760 mmHg 85%
    08:00 +16°C° 0 mm 1 mps 760 mmHg 76%
    09:00 +20°C° 0 mm 1 mps 759 mmHg 67%
    10:00 +22°C° 0 mm 1 mps 759 mmHg 58%
    11:00 +23°C° 0 mm 1 mps 758 mmHg 53%
    12:00 +24°C° 0 mm 1 mps 758 mmHg 49%
    13:00 +26°C° 0 mm 1 mps 757 mmHg 44%
    14:00 +25°C° 0 mm 2 mps 756 mmHg 47%
    15:00 +25°C° 0 mm 2 mps 755 mmHg 50%
    16:00 +25°C° 0 mm 3 mps 755 mmHg 53%
    17:00 +24°C° 0 mm 3 mps 754 mmHg 57%
    18:00 +21°C° 0 mm 4 mps 754 mmHg 61%
    19:00 +20°C° 0 mm 5 mps 753 mmHg 65%
    20:00 +19°C° 0.5 mm 5 mps 753 mmHg 71%
    21:00 +18°C° 0.5 mm 4 mps 753 mmHg 77%
    22:00 +17°C° 0.5 mm 4 mps 753 mmHg 82%
    23:00 +17°C° 0.4 mm 4 mps 752 mmHg 84%

    Tomorrow, 24 April, Wednesday

    Time Temperature Precipitation Wind Pressure Humidity
    00:00 +15°C° 0.4 mm 4 mps 752 mmHg 85%
    01:00 +14°C° 0.4 mm 3 mps 752 mmHg 87%
    02:00 +13°C° 0 mm 4 mps 752 mmHg 84%
    03:00 +12°C° 0 mm 4 mps 752 mmHg 82%
    04:00 +10°C° 0 mm 4 mps 752 mmHg 80%
    05:00 +10°C° 0 mm 4 mps 753 mmHg 78%
    06:00 +8°C° 0 mm 5 mps 753 mmHg 76%
    07:00 +8°C° 0 mm 5 mps 753 mmHg 74%
    08:00 +8°C° 0 mm 5 mps 753 mmHg 71%
    09:00 +9°C° 0 mm 5 mps 754 mmHg 68%
    10:00 +9°C° 0 mm 6 mps 754 mmHg 64%
    11:00 +10°C° 0 mm 6 mps 754 mmHg 63%
    12:00 +10°C° 0 mm 6 mps 754 mmHg 61%
    13:00 +10°C° 0 mm 6 mps 754 mmHg 59%
    14:00 +11°C° 0 mm 6 mps 754 mmHg 59%
    15:00 +11°C° 0 mm 6 mps 754 mmHg 59%
    16:00 +13°C° 0 mm 6 mps 754 mmHg 58%
    17:00 +12°C° 0 mm 5 mps 755 mmHg 62%
    18:00 +11°C° 0 mm 4 mps 755 mmHg 66%
    19:00 +10°C° 0 mm 4 mps 756 mmHg 71%
    20:00 +9°C° 0 mm 3 mps 756 mmHg 73%
    21:00 +9°C° 0 mm 3 mps 757 mmHg 75%
    22:00 +8°C° 0 mm 3 mps 757 mmHg 77%
    23:00 +8°C° 0 mm 3 mps 758 mmHg 80%

    Day after tomorrow, 25 April, Thursday

    Time Temperature Precipitation Wind Pressure Humidity
    00:00 +7°C° 0 mm 2 mps 758 mmHg 84%
    01:00 +6°C° 0 mm 2 mps 758 mmHg 88%
    02:00 +6°C° 0 mm 1 mps 758 mmHg 89%
    03:00 +6°C° 0 mm 1 mps 758 mmHg 91%
    04:00 +5°C° 0 mm 1 mps 758 mmHg 92%
    05:00 +7°C° 0 mm 1 mps 758 mmHg 86%
    06:00 +8°C° 0 mm 1 mps 759 mmHg 81%
    07:00 +9°C° 0 mm 1 mps 759 mmHg 75%
    08:00 +10°C° 0 mm 2 mps 759 mmHg 67%
    09:00 +13°C° 0 mm 2 mps 758 mmHg 58%
    10:00 +15°C° 0 mm 2 mps 758 mmHg 50%
    11:00 +17°C° 0 mm 2 mps 758 mmHg 46%
    12:00 +19°C° 0 mm 2 mps 757 mmHg 42%
    13:00 +21°C° 0 mm 1 mps 757 mmHg 38%
    14:00 +22°C° 0 mm 1 mps 756 mmHg 38%
    15:00 +22°C° 0 mm 1 mps 756 mmHg 39%
    16:00 +22°C° 0 mm 1 mps 756 mmHg 39%
    17:00 +20°C° 0 mm 1 mps 756 mmHg 46%
    18:00 +18°C° 0 mm 1 mps 756 mmHg 53%
    19:00 +15°C° 0 mm 1 mps 756 mmHg 60%
    20:00 +14°C° 0 mm 1 mps 756 mmHg 63%
    21:00 +13°C° 0 mm 1 mps 756 mmHg 66%
    22:00 +13°C° 0 mm 1 mps 757 mmHg 69%
    23:00 +12°C° 0 mm 1 mps 756 mmHg 70%

    26 April, Friday

    Time Temperature Precipitation Wind Pressure Humidity
    00:00 +12°C° 0 mm 1 mps 756 mmHg 70%
    01:00 +12°C° 0 mm 1 mps 755 mmHg 71%
    02:00 +12°C° 0.3 mm 2 mps 754 mmHg 75%
    03:00 +12°C° 0.3 mm 2 mps 754 mmHg 80%
    04:00 +11°C° 0.3 mm 3 mps 753 mmHg 84%
    05:00 +11°C° 3.2 mm 3 mps 752 mmHg 87%
    06:00 +11°C° 3.2 mm 3 mps 752 mmHg 91%
    07:00 +12°C° 3.2 mm 4 mps 751 mmHg 94%
    08:00 +12°C° 3 mm 4 mps 750 mmHg 93%
    09:00 +13°C° 3 mm 4 mps 749 mmHg 93%
    10:00 +14°C° 3 mm 4 mps 748 mmHg 92%
    11:00 +14°C° 2.6 mm 4 mps 748 mmHg 93%
    12:00 +14°C° 2.6 mm 4 mps 747 mmHg 94%
    13:00 +14°C° 2.6 mm 3 mps 747 mmHg 95%
    14:00 +13°C° 1.4 mm 4 mps 747 mmHg 93%
    15:00 +12°C° 1.4 mm 4 mps 747 mmHg 91%
    16:00 +10°C° 1.4 mm 5 mps 748 mmHg 89%
    17:00 +11°C° 0.1 mm 4 mps 748 mmHg 87%
    18:00 +11°C° 0.1 mm 4 mps 749 mmHg 84%
    19:00 +10°C° 0.1 mm 3 mps 750 mmHg 82%
    20:00 +8°C° 0 mm 4 mps 751 mmHg 75%
    21:00 +6°C° 0 mm 4 mps 751 mmHg 68%
    22:00 +5°C° 0 mm 4 mps 752 mmHg 62%
    23:00 +5°C° 0 mm 5 mps 752 mmHg 64%

    27 April, Saturday

    Time Temperature Precipitation Wind Pressure Humidity
    00:00 +5°C° 0 mm 5 mps 752 mmHg 67%
    01:00 +5°C° 0 mm 6 mps 752 mmHg 69%
    02:00 +4°C° 0 mm 6 mps 753 mmHg 69%
    03:00 +5°C° 0 mm 5 mps 754 mmHg 69%
    04:00 +3°C° 0 mm 5 mps 755 mmHg 69%
    05:00 +5°C° 0 mm 5 mps 756 mmHg 62%
    06:00 +4°C° 0 mm 6 mps 756 mmHg 55%
    07:00 +4°C° 0 mm 7 mps 757 mmHg 49%
    08:00 +5°C° 0 mm 7 mps 758 mmHg 44%
    09:00 +6°C° 0 mm 7 mps 758 mmHg 40%
    10:00 +8°C° 0 mm 7 mps 758 mmHg 35%
    11:00 +9°C° 0 mm 7 mps 758 mmHg 33%
    12:00 +10°C° 0 mm 7 mps 758 mmHg 31%
    13:00 +11°C° 0 mm 7 mps 759 mmHg 29%
    14:00 +13°C° 0 mm 6 mps 759 mmHg 30%
    15:00 +13°C° 0 mm 5 mps 759 mmHg 30%
    16:00 +13°C° 0 mm 4 mps 759 mmHg 31%
    17:00 +11°C° 0 mm 4 mps 760 mmHg 36%
    18:00 +10°C° 0 mm 3 mps 760 mmHg 42%
    19:00 +8°C° 0 mm 2 mps 761 mmHg 47%
    20:00 +8°C° 0 mm 2 mps 761 mmHg 49%
    21:00 +9°C° 0 mm 1 mps 762 mmHg 51%
    22:00 +8°C° 0 mm 1 mps 762 mmHg 53%
    23:00 +8°C° 0.1 mm 1 mps 762 mmHg 58%

    28 April, Sunday

    Time Temperature Precipitation Wind Pressure Humidity
    00:00 +7°C° 0.1 mm 1 mps 762 mmHg 62%
    01:00 +7°C° 0.1 mm 1 mps 761 mmHg 67%
    02:00 +6°C° 0.2 mm 2 mps 761 mmHg 72%
    03:00 +5°C° 0.2 mm 3 mps 760 mmHg 77%
    04:00 +5°C° 0.2 mm 4 mps 759 mmHg 81%
    05:00 +6°C° 0.5 mm 4 mps 759 mmHg 82%
    06:00 +6°C° 0.5 mm 4 mps 758 mmHg 82%
    07:00 +7°C° 0.5 mm 4 mps 757 mmHg 83%
    08:00 +9°C° 0.1 mm 5 mps 757 mmHg 76%
    09:00 +11°C° 0.1 mm 6 mps 756 mmHg 68%
    10:00 +14°C° 0.1 mm 7 mps 755 mmHg 61%
    11:00 +15°C° 0.1 mm 7 mps 755 mmHg 64%
    12:00 +16°C° 0.1 mm 6 mps 754 mmHg 66%
    13:00 +17°C° 0.1 mm 6 mps 753 mmHg 69%
    14:00 +17°C° 0.1 mm 6 mps 754 mmHg 62%
    15:00 +17°C° 0.1 mm 7 mps 755 mmHg 54%
    16:00 +17°C° 0.1 mm 8 mps 757 mmHg 47%
    17:00 +14°C° 0 mm 7 mps 758 mmHg 55%
    18:00 +10°C° 0 mm 5 mps 760 mmHg 62%
    19:00 +8°C° 0 mm 3 mps 762 mmHg 69%
    20:00 +7°C° 0 mm 3 mps 763 mmHg 71%
    21:00 +5°C° 0 mm 3 mps 764 mmHg 73%
    22:00 +4°C° 0 mm 3 mps 765 mmHg 75%
    23:00 +3°C° 0 mm 3 mps 766 mmHg 77%
    Show more